This is the latest recevied weather packets stored in our database for station/object SV9TNF-51. If no packets are shown the sender has not sent any weather packets the latest 10 day(s).
| Time | Temp. | Humidity | Pressure | Rain* | Wind** | Luminosity | Snow |
|---|---|---|---|---|---|---|---|
| 1787902315 | 35° C | 36% | 1012.2 hPa | 0 mm | 0 m/s | - | - |
| 1787902015 | 34.44° C | 37% | 1012.2 hPa | 0 mm | 4.92 m/s, 106° | - | - |
| 1787901715 | 34.44° C | 36% | 1012.2 hPa | 0 mm | 3.58 m/s, 128° | - | - |
| 1787901415 | 34.44° C | 36% | 1012.2 hPa | 0 mm | 3.13 m/s, 126° | - | - |
| 1787901115 | 34.44° C | 39% | 1011.9 hPa | 0 mm | 0.89 m/s, 143° | - | - |
| 1787900815 | 33.33° C | 38% | 1011.9 hPa | 0 mm | 4.02 m/s, 101° | - | - |
| 1787900515 | 33.33° C | 39% | 1011.9 hPa | 0 mm | 3.58 m/s, 117° | - | - |
| 1787900215 | 32.78° C | 40% | 1011.9 hPa | 0 mm | 4.47 m/s, 133° | - | - |
| 1787899914 | 32.78° C | 40% | 1011.9 hPa | 0 mm | 4.02 m/s, 155° | - | - |
| 1787899614 | 32.78° C | 40% | 1011.9 hPa | 0 mm | 4.92 m/s, 117° | - | - |
| 1787899314 | 32.78° C | 40% | 1011.9 hPa | 0 mm | 2.68 m/s, 97° | - | - |
| 1787899014 | 32.78° C | 39% | 1011.9 hPa | 0 mm | 2.68 m/s, 138° | - | - |
| 1787898714 | 33.33° C | 39% | 1011.9 hPa | 0 mm | 0 m/s | - | - |
| 1787898414 | 33.33° C | 39% | 1011.9 hPa | 0 mm | 0 m/s | - | - |
| 1787898114 | 32.78° C | 40% | 1011.9 hPa | 0 mm | 0 m/s | - | - |
| 1787897814 | 31.67° C | 41% | 1011.9 hPa | 0 mm | 3.58 m/s, 148° | - | - |
| 1787897514 | 32.22° C | 41% | 1011.9 hPa | 0 mm | 0.45 m/s, 131° | - | - |
| 1787897214 | 31.67° C | 41% | 1011.9 hPa | 0 mm | 1.79 m/s, 121° | - | - |
| 1787896913 | 32.22° C | 42% | 1011.9 hPa | 0 mm | 0.45 m/s, 117° | - | - |
| 1787896613 | 31.67° C | 42% | 1011.9 hPa | 0 mm | 0 m/s | - | - |
| 1787896313 | 31.11° C | 44% | 1011.9 hPa | 0 mm | 0 m/s | - | - |
| 1787896013 | 30.56° C | 45% | 1011.9 hPa | 0 mm | 1.34 m/s, 135° | - | - |
| 1787895713 | 29.44° C | 47% | 1011.9 hPa | 0 mm | 1.34 m/s, 145° | - | - |
| 1787895413 | 29.44° C | 47% | 1011.9 hPa | 0 mm | 0.45 m/s, 127° | - | - |
| 1787895113 | 29.44° C | 47% | 1011.9 hPa | 0 mm | 0 m/s | - | - |
* Rain latest hour (hover to see other rain measurements)
** Current wind speed in m/s (hover to see current wind gust speed)